User: anonymous   Login
Location: *
(40.4270°N, 9.4940°E)
Time: 22:38:43
(UTC+02:00)
Language:

Okean 2 - Orbit

View from above orbital plane
View from above orbital plane
View from above satellite
View from above satellite

Ground track
Ground track

The orbit data is extracted from the following two-line orbital elements,

1 20510U 90018A   16275.52444477  .00000802  00000-0  64425-4 0  9999
2 20510  82.5154  59.7746 0013500 131.3862 300.4010 14.98680767442707
Epoch (UTC): 01 October 2016 12:35:12
Eccentricity: 0.0013500
inclination: 82.5154°
perigee height: 561 km
apogee height: 580 km
right ascension of ascending node: 59.7746°
argument of perigee: 131.3862°
revolutions per day: 14.98680767
mean anomaly at epoch: 300.4010°
orbit number at epoch: 44270

The dashed part of the orbit path shows where the satellite is in the earth's shadow,  

DLR